Regional Weather Roundup
Issued by NWS State College, PA

Home | Current Version | Previous Version | Graphics & Text | Print | Product List | Glossary On
Versions: 1 2 3 4 5 6 7 8 9 10 11 12 13 14 15 16 17 18 19 20 21 22 23 24 25 26 27 28 29 30 31 32 33 34 35 36 37 38 39 40 41 42 43 44 45 46 47 48 49 50
000
ASUS41 KCTP 011903
RWRCTP

REGIONAL WEATHER ROUNDUP
NATIONAL WEATHER SERVICE STATE COLLEGE PA
200 PM EST SUN FEB 01 2015

Note: "fair" indicates few or no clouds below 12,000 feet with no
significant weather and/or obstructions to visibility.

* = STATION THAT DOES NOT REPORT PRECIPITATION /E.G. RAIN...SNOW...ETC/
    THUNDER OR FOG.

PAZ002>004-007>009-013>016-020>023-029>032-012000-
WESTERN PENNSYLVANIA

CITY           SKY/WX    TMP DP  RH WIND       PRES   REMARKS
ERIE           SNOW      25  21  85 NE12      30.03F VSB 1/2 WCI  14
MEADVILLE      SNOW      28  24  85 E7        29.95F VSB 1/4
FRANKLIN*      CLOUDY    27  23  86 E6        29.97F VSB 1/2
NEW CASTLE     LGT SNOW  29  28  96 E5        29.96F VSB 1
BEAVER COUNTY  LGT SNOW  30  28  93 SE6       29.94F
BUTLER*        CLOUDY    28  27  93 E9        29.97F VSB 3/4
PITTSBURGH INT LGT SNOW  31  29  92 SE8       29.94F FOG
PITTSBURGH     SNOW      31  27  85 SE7       29.94F VSB 1/4
INDIANA*       FOG       32  30  93 CALM      30.02F VSB 3/4
LATROBE        LGT SNOW  32  32 100 CALM      30.00F
WASHINGTON CO* CLOUDY    34  30  86 E5        29.94F
$$

PAZ004>006-010>012-017>019-024>028-033>037-041-042-045-046-049>053-012000-
CENTRAL PENNSYLVANIA

CITY           SKY/WX    TMP DP  RH WIND       PRES   REMARKS
BRADFORD       LGT SNOW  26  20  77 SE8       29.97F
DUBOIS         SNOW      28  24  85 E6        29.97F VSB 1/2
CLEARFIELD     LGT SNOW  28  25  88 NE5       30.01F VSB 1
JOHNSTOWN      LGT SNOW  32  30  92 S6        29.94F VSB 1
ALTOONA        LGT SNOW  32  27  81 E5        30.01F
STATE COLLEGE  LGT SNOW  30  25  80 CALM      30.04F
WILLIAMSPORT   LGT SNOW  30  22  72 SE7       30.11F
SELINSGROVE    LGT SNOW  32  26  78 SE6       30.12F
FT INDIANTOWN  CLOUDY    35  20  55 S6        30.12F
CAPITAL CITY   CLOUDY    36  21  54 CALM      30.12F
HARRISBURG     CLOUDY    37  22  54 CALM      30.12F
YORK           CLOUDY    38  22  52 S6        30.11F
$$

PAZ038>040-043-044-047-048-054-055-060>062-067>071-012000-
EASTERN PENNSYLVANIA

CITY           SKY/WX    TMP DP  RH WIND       PRES   REMARKS
SCRANTON       CLOUDY    30  20  66 SW6       30.09F
MOUNT POCONO   CLOUDY    27  17  66 W7        30.04F
ALLENTOWN      CLOUDY    34  23  64 SW7       30.14F
QUAKERTOWN*    CLOUDY    34  23  64 W3        30.14F
READING        CLOUDY    36  23  59 W5        30.14F
LANCASTER      CLOUDY    34  23  64 E5        30.13F
COATESVILLE    CLOUDY    37  27  65 CALM      30.14F
POTTSTOWN      CLOUDY    35  23  61 SW5       30.16F
BLUE BELL      PTSUNNY   36  27  69 CALM      30.15S
DOYLESTOWN     CLOUDY    34  22  61 W3        30.14F
WILLOW GROVE   NOT AVBL
NORTH PHILA    CLOUDY    39  21  48 W3        30.18F
PHILADELPHIA   CLOUDY    38  25  59 W7        30.18F
$$


USA.gov is the U.S. government's official web portal to all federal, state and local government web resources and services.